[Date Prev][Date Next][Thread Prev][Thread Next] - [Date Index][Thread Index][Author Index]

2 Line ISS Keps 9-12



ISS
1 25544U 98067A   03255.18023605  .00013586  00000-0  15641-3 0  4842
2 25544  51.6322 302.0915 0005884 235.5120 215.3216 15.62299795274596


----
Via the sarex mailing list at AMSAT.ORG courtesy of AMSAT-NA.
To unsubscribe, send "unsubscribe sarex" to Majordomo@amsat.org



AMSAT Top AMSAT Home